Sacramento / Mc Clellan, CA

9:11 PM PDT on May 23, 2017 (GMT -0700)
McClellan

Weather History for KMCC - May, 2013

Change the Weather History Date:

Thursday, May 30, 2013

  Actual Average (KMHR) Record (KMHR)
Temperature  
Mean Temperature 68 °F -  
Max Temperature 84 °F 83 °F 100 °F (2001)
Min Temperature 53 °F 52 °F 44 °F (2008)
Cooling Degree Days 4    
Growing Degree Days 18 (Base 50)    
Moisture  
Dew Point 45 °F    
Average Humidity 49    
Maximum Humidity 82    
Minimum Humidity 14    
Precipitation  
Precipitation 0.00 in - - ()
Sea Level Pressure  
Sea Level Pressure 29.93 in    
Wind  
Wind Speed 6 mph (SSW)    
Max Wind Speed 12 mph    
Max Gust Speed -    
Visibility 10 miles    
Events      
Averages and records for this station are not official NWS values.
T = Trace of Precipitation, MM = Missing Value Source: NWS Daily Summary

Daily Weather History Graph

Daily Weather History Graph

Search for Another Location

Airport or City:

Trip Planner

Search our weather history database for the weather conditions in past years. The results will help you decide how hot, cold, wet, or windy it might be!

Date:

Astronomy

May. 30, 2013 Rise Set
Actual Time 5:43 AM PDT 8:23 PM PDT
Civil Twilight 5:12 AM PDT 8:54 PM PDT
Nautical Twilight 4:33 AM PDT 9:33 PM PDT
Astronomical Twilight 3:49 AM PDT 10:17 PM PDT
Moon 12:29 AM PDT (5/30) 11:55 AM PDT (5/30)
Length of Visible Light 15h 42m
Length of Day
14h 39m
Waning Gibbous, 61% of the Moon is Illuminated
May 30
Waning Gibbous
May 31
Last Quarter
Jun 8
New
Jun 16
First Quarter
Jun 23
Full

Hourly Weather History & Observations

Time (PDT) Temp. Dew Point Humidity Pressure Visibility Wind Dir Wind Speed Gust Speed Precip Events Conditions
12:00 AM 60.8 °F 50.0 °F 68% 29.91 in 10.0 mi SSE 6.9 mph - N/A   Clear
12:20 AM 60.8 °F 50.0 °F 68% 29.91 in 10.0 mi South 9.2 mph - N/A   Clear
12:40 AM 59.0 °F 50.0 °F 72% 29.91 in 10.0 mi South 8.1 mph - N/A   Clear
1:00 AM 59.0 °F 50.0 °F 72% 29.90 in 10.0 mi SSE 6.9 mph - N/A   Clear
1:20 AM 59.0 °F 50.0 °F 72% 29.90 in 10.0 mi SSE 8.1 mph - N/A   Clear
1:40 AM 57.2 °F 48.2 °F 72% 29.91 in 10.0 mi SSE 5.8 mph - N/A   Clear
2:00 AM 57.2 °F 50.0 °F 77% 29.90 in 10.0 mi SSE 4.6 mph - N/A   Clear
2:20 AM 57.2 °F 50.0 °F 77% 29.91 in 10.0 mi SSE 8.1 mph - N/A   Clear
2:40 AM 57.2 °F 48.2 °F 72% 29.90 in 10.0 mi SE 5.8 mph - N/A   Clear
3:00 AM 57.2 °F 50.0 °F 77% 29.91 in 10.0 mi ESE 6.9 mph - N/A   Clear
3:20 AM 55.4 °F 48.2 °F 77% 29.91 in 10.0 mi SE 5.8 mph - N/A   Clear
3:40 AM 55.4 °F 48.2 °F 77% 29.91 in 10.0 mi SE 6.9 mph - N/A   Clear
4:00 AM 55.4 °F 48.2 °F 77% 29.92 in 10.0 mi SE 6.9 mph - N/A   Clear
4:20 AM 53.6 °F 48.2 °F 82% 29.92 in 10.0 mi SSE 6.9 mph - N/A   Clear
4:40 AM 53.6 °F 48.2 °F 82% 29.91 in 10.0 mi SSE 6.9 mph - N/A   Clear
5:00 AM 53.6 °F 48.2 °F 82% 29.91 in 10.0 mi SSE 5.8 mph - N/A   Clear
5:20 AM 53.6 °F 48.2 °F 82% 29.92 in 10.0 mi SE 4.6 mph - N/A   Clear
5:40 AM 53.6 °F 48.2 °F 82% 29.92 in 10.0 mi SE 4.6 mph - N/A   Clear
6:00 AM 53.6 °F 48.2 °F 82% 29.93 in 9.0 mi SE 4.6 mph - N/A   Clear
6:20 AM 55.4 °F 48.2 °F 77% 29.93 in 10.0 mi SSE 4.6 mph - N/A   Clear
6:40 AM 55.4 °F 48.2 °F 77% 29.93 in 10.0 mi SE 5.8 mph - N/A   Clear
7:00 AM 57.2 °F 48.2 °F 72% 29.94 in 10.0 mi SE 5.8 mph - N/A   Clear
7:20 AM 59.0 °F 48.2 °F 67% 29.95 in 10.0 mi SE 3.5 mph - N/A   Clear
7:40 AM 59.0 °F 48.2 °F 67% 29.95 in 10.0 mi ESE 4.6 mph - N/A   Clear
8:00 AM 60.8 °F 48.2 °F 63% 29.95 in 10.0 mi SSE 5.8 mph - N/A   Clear
8:20 AM 62.6 °F 48.2 °F 59% 29.95 in 10.0 mi SE 4.6 mph - N/A   Clear
8:40 AM 64.4 °F 48.2 °F 56% 29.95 in 10.0 mi SE 4.6 mph - N/A   Clear
9:00 AM 64.4 °F 48.2 °F 56% 29.96 in 10.0 mi Calm Calm - N/A   Clear
9:20 AM 66.2 °F 48.2 °F 52% 29.96 in 9.0 mi Calm Calm - N/A   Clear
9:40 AM 66.2 °F 48.2 °F 52% 29.96 in 10.0 mi Calm Calm - N/A   Clear
10:00 AM 69.8 °F 50.0 °F 49% 29.96 in 10.0 mi SW 4.6 mph - N/A   Clear
10:20 AM 69.8 °F 50.0 °F 49% 29.96 in 9.0 mi West 3.5 mph - N/A   Clear
10:40 AM 71.6 °F 48.2 °F 43% 29.95 in 9.0 mi NW 6.9 mph - N/A   Clear
11:00 AM 73.4 °F 48.2 °F 41% 29.95 in 9.0 mi West 8.1 mph - N/A   Clear
11:20 AM 73.4 °F 48.2 °F 41% 29.96 in 10.0 mi NW 8.1 mph - N/A   Clear
11:40 AM 75.2 °F 48.2 °F 38% 29.96 in 10.0 mi NW 10.4 mph - N/A   Clear
12:00 PM 75.2 °F 48.2 °F 38% 29.96 in 10.0 mi NW 10.4 mph - N/A   Clear
12:20 PM 75.2 °F 48.2 °F 38% 29.96 in 10.0 mi NNW 9.2 mph - N/A   Clear
12:40 PM 77.0 °F 48.2 °F 36% 29.95 in 10.0 mi WSW 5.8 mph - N/A   Clear
1:00 PM 77.0 °F 46.4 °F 34% 29.95 in 10.0 mi WNW 6.9 mph - N/A   Clear
1:20 PM 80.6 °F 46.4 °F 30% 29.94 in 10.0 mi West 8.1 mph - N/A   Clear
1:40 PM 80.6 °F 46.4 °F 30% 29.94 in 10.0 mi NW 9.2 mph - N/A   Clear
2:00 PM 80.6 °F 44.6 °F 28% 29.94 in 10.0 mi WNW 6.9 mph - N/A   Clear
2:20 PM 80.6 °F 44.6 °F 28% 29.94 in 10.0 mi West 6.9 mph - N/A   Clear
2:40 PM 80.6 °F 41.0 °F 24% 29.93 in 10.0 mi WSW 5.8 mph - N/A   Clear
3:00 PM 82.4 °F 41.0 °F 23% 29.92 in 9.0 mi North 3.5 mph - N/A   Clear
3:20 PM 82.4 °F 39.2 °F 21% 29.92 in 10.0 mi North 4.6 mph - N/A   Clear
3:40 PM 82.4 °F 37.4 °F 20% 29.91 in 10.0 mi NE 3.5 mph - N/A   Clear
4:00 PM 82.4 °F 37.4 °F 20% 29.91 in 9.0 mi NW 5.8 mph - N/A   Clear
4:20 PM 82.4 °F 32.0 °F 16% 29.91 in 10.0 mi West 6.9 mph - N/A   Clear
4:40 PM 84.2 °F 32.0 °F 15% 29.91 in 10.0 mi NNW 9.2 mph - N/A   Clear
5:00 PM 84.2 °F 33.8 °F 16% 29.90 in 10.0 mi NNW 8.1 mph - N/A   Clear
5:20 PM 84.2 °F 32.0 °F 15% 29.90 in 10.0 mi NW 6.9 mph - N/A   Clear
5:40 PM 84.2 °F 33.8 °F 16% 29.90 in 10.0 mi WSW 4.6 mph - N/A   Clear
6:00 PM 84.2 °F 32.0 °F 15% 29.90 in 10.0 mi WNW 3.5 mph - N/A   Clear
6:20 PM 84.2 °F 32.0 °F 15% 29.90 in 10.0 mi West 5.8 mph - N/A   Clear
6:40 PM 82.4 °F 32.0 °F 16% 29.90 in 10.0 mi West 5.8 mph - N/A   Clear
7:00 PM 82.4 °F 28.4 °F 14% 29.90 in 10.0 mi West 5.8 mph - N/A   Clear
7:20 PM 80.6 °F 44.6 °F 28% 29.91 in 10.0 mi SW 11.5 mph - N/A   Clear
7:40 PM 77.0 °F 44.6 °F 32% 29.91 in 10.0 mi SSW 9.2 mph - N/A   Clear
8:00 PM 75.2 °F 46.4 °F 36% 29.91 in 10.0 mi SW 10.4 mph - N/A   Clear
8:20 PM 75.2 °F 46.4 °F 36% 29.91 in 10.0 mi SW 8.1 mph - N/A   Clear
8:40 PM 73.4 °F 44.6 °F 36% 29.92 in 10.0 mi SSW 8.1 mph - N/A   Clear
9:00 PM 71.6 °F 44.6 °F 38% 29.93 in 10.0 mi SW 6.9 mph - N/A   Clear
9:20 PM 69.8 °F 44.6 °F 40% 29.93 in 10.0 mi SW 4.6 mph - N/A   Clear
9:40 PM 68.0 °F 44.6 °F 43% 29.94 in 10.0 mi SW 3.5 mph - N/A   Clear
10:00 PM 66.2 °F 44.6 °F 46% 29.94 in 10.0 mi SSW 4.6 mph - N/A   Clear
10:20 PM 66.2 °F 44.6 °F 46% 29.94 in 10.0 mi South 4.6 mph - N/A   Clear
10:40 PM 66.2 °F 46.4 °F 49% 29.94 in 10.0 mi South 4.6 mph - N/A   Clear
11:00 PM 64.4 °F 46.4 °F 52% 29.94 in 10.0 mi South 3.5 mph - N/A   Clear
11:20 PM 64.4 °F 46.4 °F 52% 29.95 in 10.0 mi SE 5.8 mph - N/A   Clear
11:40 PM 64.4 °F 46.4 °F 52% 29.95 in 10.0 mi SE 6.9 mph - N/A   Clear